CAPE
0 0 0 0 0 2 0 0 32 57 67 98 234 270 203 228 139 31 17 40 48 47 89 79 42 54 40 40 23 13 5 0 0 5 12 87 147 383 1056 1385 1379 1194 1023 876
0 0 0 0 0 2 32 1 44 41 137 208 488 321 268 191 127 116 63 39 14 5 16 28 23 27 2 3 1 6 0 0 0 14 3 0 79 230 461 740 857 998 1099 1353
0 0 0 0 0 0 70 181 194 119 200 282 330 368 254 166 121 64 6 3 4 2 0 1 1 5 1 0 0 0 0 0 0 0 16 14 4 19 56 188 371 429 418 496
0 0 3 1 0 0 14 175 357 317 213 330 342 292 211 253 149 2 1 4 2 2 2 2 2 2 2 0 0 0 0 0 0 0 0 1 2 1 2 3 29 72 104 159
0 0 0 0 0 0 0 0 7 206 310 303 314 249 269 162 1 0 0 1 1 3 4 4 4 5 1 2 0 0 0 0 0 0 0 0 0 0 0 0 0 0 7 13
0 0 0 0 0 0 0 0 18 374 365 372 293 247 33 0 0 0 0 0 0 0 1 0 0 0 0 0 0 0 0 0 0 0 0 0 0 0 0 0 0 0 2 5
0 0 0 0 0 0 0 0 66 499 486 502 512 428 4 0 0 0 0 0 0 0 0 0 0 0 0 0 0 0 0 0 0 0 0 0 0 0 0 0 0 0 0 0
0 0 0 0 0 0 0 23 203 600 564 492 43 43 3 0 0 0 0 0 0 0 0 0 0 0 0 0 0 0 0 0 0 0 0 0 0 0 0 0 0 0 0 0
0 0 0 0 3 19 65 160 318 590 299 59 0 0 0 0 0 0 0 0 0 0 0 0 0 0 0 0 0 0 0 0 0 0 0 0 0 0 0 0 0 0 0 0
0 2 18 0 1 23 47 99 90 375 152 39 1 0 0 0 0 0 0 0 0 0 0 0 0 0 0 0 0 0 0 0 0 0 0 0 0 0 0 0 0 0 0 0
12 0 0 1 0 0 23 195 274 47 17 16 2 0 0 0 0 0 0 0 0 0 0 0 0 0 0 0 0 0 0 0 0 0 0 0 0 0 0 0 0 0 0 0
114 23 14 2 0 0 0 5 203 167 17 0 0 0 0 0 0 0 0 0 0 0 0 0 0 0 0 0 0 0 0 0 0 0 0 0 0 0 0 0 0 0 0 0
0 0 0 0 0 0 0 0 0 40 47 7 0 0 2 0 0 0 0 0 0 0 0 0 0 0 0 0 0 0 0 0 0 0 0 0 0 0 0 0 0 0 0 0
0 0 0 0 0 0 0 0 0 0 0 0 0 0 0 0 0 0 0 0 0 0 0 0 0 0 0 0 0 0 0 0 0 0 0 0 0 0 0 0 0 0 0 0
0 0 0 0 0 0 0 0 0 0 0 0 0 0 0 0 0 0 0 0 0 0 0 0 0 0 0 0 0 0 0 0 0 0 0 0 0 0 0 0 0 0 0 0
0 0 0 0 0 0 0 0 0 0 0 0 0 0 0 0 0 0 0 0 0 0 0 0 0 0 0 0 0 0 0 0 0 0 0 0 0 0 0 0 0 0 0 0
0 0 0 0 0 0 0 0 0 0 0 0 0 0 0 0 0 0 0 0 0 0 0 0 0 0 0 0 0 0 0 0 0 0 0 0 0 0 0 0 0 0 0 0
0 0 0 0 0 0 0 0 0 0 0 0 0 0 0 0 1 4 0 0 0 0 0 0 0 0 0 0 0 0 0 0 0 0 0 0 0 0 0 0 0 0 0 0
0 0 0 0 0 0 0 0 0 0 0 0 0 0 0 0 1 1 0 0 0 0 0 0 0 0 0 0 0 0 0 0 0 0 0 0 0 0 0 0 0 0 0 0
0 0 0 0 0 0 5 0 0 3 4 6 5 9 9 0 0 0 0 0 0 0 0 0 0 0 0 0 0 0 0 0 0 0 0 0 0 0 0 0 0 0 0 0
0 0 2 3 5 7 4 11 13 18 19 30 25 32 14 50 43 43 23 29 36 11 2 0 0 3 0 0 0 0 0 0 0 0 0 0 0 0 0 0 0 0 0 0
0 3 7 4 2 0 0 0 0 0 2 6 9 11 14 27 53 63 66 73 73 4 0 0 0 0 0 0 0 0 0 0 0 0 0 0 0 0 0 0 0 0 0 0
0 0 0 0 0 0 0 0 0 0 0 0 0 0 0 0 0 2 10 64 42 13 11 9 0 0 0 0 0 0 0 0 0 0 0 0 0 0 0 0 0 0 0 0
0 0 0 0 0 0 0 0 0 0 0 0 0 0 0 0 0 0 61 38 26 9 9 73 0 0 0 0 0 0 0 0 0 0 0 0 0 0 0 0 0 0 0 0
0 0 0 0 0 0 0 0 0 0 0 0 0 0 0 0 0 35 35 118 13 27 71 87 12 2 1 8 37 29 12 0 0 0 0 0 0 0 0 0 0 0 0 0
0 0 0 0 0 0 0 0 0 0 0 0 0 1 5 3 11 42 42 104 197 82 116 33 15 2 4 9 38 68 35 15 0 1 0 0 0 0 0 0 0 0 1 0
0 0 0 0 0 0 0 0 0 0 0 0 0 1 13 19 36 78 53 75 79 72 20 1 0 0 5 38 45 44 48 45 18 19 1 0 0 0 0 0 0 11 0 0
CIN
-0 -0 -0 -0 -0 -36 -0 -0 -8 -11 -22 -75 -277 -279 -259 -207 -211 -277 -238 -245 -237 -186 -100 -86 -62 -19 -65 -106 -146 -43 -29 -0 -0 -96 -51 -143 -144 -97 -33 -25 -26 -31 -37 -51
-0 -0 -0 -0 -0 -39 -115 -12 -89 -75 -49 -277 -221 -231 -228 -248 -219 -186 -222 -235 -266 -253 -163 -80 -41 -35 -55 -0 -0 -0 -0 -0 -0 -107 -2 -0 -138 -106 -67 -39 -51 -46 -36 -16
-0 -0 -6 -0 -0 -0 -103 -132 -140 -47 -154 -271 -234 -219 -245 -242 -227 -227 -191 -0 -219 -0 -0 -8 -25 -15 -0 -0 -0 -0 -0 -0 -0 -0 -98 -140 -45 -121 -151 -100 -69 -71 -77 -66
-0 -6 -5 -1 -0 -0 -61 -142 -138 -160 -215 -213 -195 -171 -180 -137 -167 -55 -0 -0 -0 -0 -0 -0 -0 -0 -0 -0 -0 -0 -0 -0 -0 -0 -0 -0 -0 -0 -0 -0 -128 -148 -142 -109
-0 -0 -0 -0 -0 -0 -0 -0 -34 -139 -195 -208 -177 -144 -120 -145 -52 -0 -0 -0 -0 -0 -0 -0 -0 -0 -0 -0 -0 -0 -0 -0 -0 -0 -0 -0 -0 -0 -0 -0 -0 -0 -30 -139
-0 -0 -0 -0 -0 -0 -0 -0 -137 -102 -145 -150 -158 -129 -328 -0 -0 -0 -0 -0 -0 -0 -0 -0 -0 -0 -0 -0 -0 -0 -0 -0 -0 -0 -0 -0 -0 -0 -0 -0 -0 -0 -53 -86
-0 -0 -0 -0 -0 -0 -0 -0 -133 -86 -104 -79 -53 -65 -61 -0 -0 -0 -0 -0 -0 -0 -0 -0 -0 -0 -0 -0 -0 -0 -0 -0 -0 -0 -0 -0 -0 -0 -0 -0 -0 -0 -0 -0
-0 -0 -0 -0 -0 -0 -0 -116 -172 -109 -71 -46 -280 -270 -172 -0 -0 -0 -0 -0 -0 -0 -0 -0 -0 -0 -0 -0 -0 -0 -0 -0 -0 -0 -0 -0 -0 -0 -0 -0 -0 -0 -0 -0
-0 -0 -0 -0 -10 -161 -189 -152 -150 -109 -178 -240 -8 -0 -0 -0 -0 -0 -0 -0 -0 -0 -0 -0 -0 -0 -0 -0 -0 -0 -0 -0 -0 -0 -0 -0 -0 -0 -0 -0 -0 -0 -0 -0
-0 -14 -119 -0 -22 -197 -219 -206 -269 -163 -228 -251 -167 -0 -0 -0 -0 -0 -0 -0 -0 -0 -0 -0 -0 -0 -0 -0 -0 -0 -0 -0 -0 -0 -0 -0 -0 -0 -0 -0 -0 -0 -0 -0
-71 -0 -0 -54 -0 -0 -167 -181 -182 -249 -251 -211 -154 -0 -0 -0 -0 -0 -0 -0 -0 -0 -0 -0 -0 -0 -0 -0 -0 -0 -0 -0 -0 -0 -0 -0 -0 -0 -0 -0 -0 -0 -0 -0
-24 -22 -13 -2 -0 -0 -0 -43 -140 -136 -206 -0 -0 -0 -0 -0 -0 -0 -0 -0 -0 -0 -0 -0 -0 -0 -0 -0 -0 -0 -0 -0 -0 -0 -0 -0 -0 -0 -0 -0 -0 -0 -0 -0
-0 -0 -0 -0 -0 -0 -0 -0 -0 -133 -131 -159 -0 -0 -103 -0 -0 -0 -0 -0 -0 -0 -0 -0 -0 -0 -0 -0 -0 -0 -0 -0 -0 -0 -0 -0 -0 -0 -0 -0 -0 -0 -0 -0
-0 -0 -0 -0 -0 -0 -0 -0 -0 -0 -0 -0 -0 -0 -0 -0 -0 -0 -0 -0 -0 -0 -0 -0 -0 -0 -0 -0 -0 -0 -0 -0 -0 -0 -0 -0 -0 -0 -0 -0 -0 -0 -0 -0
-0 -0 -0 -0 -0 -0 -0 -0 -0 -0 -0 -0 -0 -0 -0 -0 -0 -0 -0 -0 -0 -0 -0 -0 -0 -0 -0 -0 -0 -0 -0 -0 -0 -0 -0 -0 -0 -0 -0 -0 -0 -0 -0 -0
-0 -0 -0 -0 -0 -0 -0 -0 -0 -0 -0 -0 -0 -0 -0 -0 -0 -0 -0 -0 -0 -0 -0 -0 -0 -0 -0 -0 -0 -0 -0 -0 -0 -0 -0 -0 -0 -0 -0 -0 -0 -0 -0 -0
-0 -0 -0 -0 -0 -0 -0 -0 -0 -0 -0 -0 -0 -0 -0 -158 -0 -9 -0 -0 -0 -0 -0 -0 -0 -0 -0 -0 -0 -0 -0 -0 -0 -0 -0 -0 -0 -0 -0 -0 -0 -0 -0 -0
-0 -0 -0 -0 -0 -0 -0 -0 -0 -0 -0 -0 -0 -0 -0 -0 -149 -163 -0 -0 -0 -0 -0 -0 -0 -0 -0 -0 -0 -0 -0 -0 -0 -0 -0 -0 -0 -0 -0 -0 -0 -0 -0 -0
-0 -0 -0 -0 -0 -0 -0 -0 -0 -0 -0 -0 -0 -0 -0 -0 -83 -122 -10 -0 -0 -0 -0 -0 -0 -0 -0 -0 -0 -0 -0 -0 -0 -0 -0 -0 -0 -0 -0 -0 -0 -0 -0 -0
-0 -0 -0 -0 -0 -7 -11 -0 -0 -21 -27 -27 -31 -27 -30 -0 -0 -0 -0 -0 -0 -0 -0 -0 -0 -0 -0 -0 -0 -0 -0 -0 -0 -0 -0 -0 -0 -0 -0 -0 -0 -0 -0 -0
-0 -0 -50 -42 -32 -54 -57 -58 -55 -37 -46 -40 -27 -20 -24 -35 -41 -46 -47 -28 -32 -73 -59 -0 -33 -66 -0 -0 -0 -0 -0 -0 -0 -0 -0 -0 -0 -0 -0 -0 -0 -0 -0 -0
-0 -65 -51 -56 -32 -0 -0 -0 -0 -0 -48 -39 -35 -35 -54 -46 -44 -40 -38 -24 -18 -26 -0 -0 -0 -0 -0 -0 -0 -0 -0 -0 -0 -0 -0 -0 -0 -0 -0 -0 -0 -0 -0 -0
-0 -0 -0 -0 -0 -0 -0 -0 -0 -0 -0 -0 -0 -0 -0 -0 -0 -14 -25 -36 -59 -81 -56 -53 -0 -0 -0 -0 -0 -0 -0 -7 -0 -0 -0 -0 -0 -0 -0 -0 -0 -0 -0 -0
-0 -0 -0 -0 -0 -0 -0 -0 -0 -0 -0 -0 -0 -0 -0 -0 -0 -0 -25 -65 -63 -69 -54 -23 -0 -0 -0 -0 -0 -0 -0 -0 -0 -0 -0 -0 -0 -0 -0 -0 -0 -0 -0 -0
-0 -0 -0 -0 -0 -0 -0 -0 -0 -0 -0 -0 -0 -0 -0 -0 -0 -39 -43 -36 -81 -67 -41 -25 -28 -7 -2 -0 -5 -1 -11 -0 -0 -0 -0 -0 -0 -0 -0 -0 -0 -0 -0 -0
-0 -0 -0 -0 -0 -0 -0 -0 -0 -0 -0 -0 -0 -0 -0 -0 -26 -47 -46 -31 -16 -33 -18 -29 -13 -5 -7 -6 -6 -5 -17 -18 -0 -14 -0 -0 -0 -0 -0 -0 -0 -0 -9 -0
-0 -0 -0 -0 -0 -0 -0 -0 -0 -0 -0 -0 -0 -0 -0 -0 -22 -32 -18 -25 -39 -18 -10 -10 -0 -0 -8 -25 -12 -13 -11 -7 -15 -6 -5 -0 -0 -0 -0 -0 -0 -29 -0 -0
Wind_Speed
18 17 19 20 23 23 27 27 29 26 25 21 15 11 9 9 7 7 11 15 19 18 14 11 8 7 13 16 18 19 15 16 16 16 19 20 21 20 21 19 17 17 16 17
19 20 22 23 22 21 22 27 28 26 25 23 13 12 12 10 10 12 10 11 11 13 10 6 5 5 5 11 16 22 19 17 16 14 17 19 20 18 17 17 16 16 18 19
22 21 23 26 23 22 27 26 26 27 24 18 16 14 14 14 13 12 11 10 9 8 5 5 6 5 3 3 10 14 17 17 19 17 16 15 17 16 16 17 16 16 16 17
18 21 31 23 22 20 22 25 24 24 22 16 15 12 11 10 10 11 8 8 9 7 5 4 4 7 4 6 8 9 10 12 14 16 17 16 15 15 15 15 15 15 16 17
15 19 25 23 23 25 24 26 23 24 16 11 8 8 11 10 7 6 6 6 6 5 3 2 2 4 2 2 5 3 4 7 9 9 11 12 13 15 13 13 13 14 15 17
15 18 24 20 22 24 22 29 19 19 15 10 9 18 16 8 4 4 3 2 4 5 5 4 3 4 5 2 2 5 7 8 11 11 12 11 12 13 12 10 12 13 14 15
20 24 23 21 24 21 26 26 22 19 12 10 14 18 8 5 5 3 2 1 3 2 3 4 4 5 5 5 4 6 6 9 12 12 10 12 12 12 12 11 11 12 13 15
19 23 28 21 21 23 22 23 22 19 14 11 12 3 4 6 5 4 3 1 1 1 1 2 3 3 3 4 5 6 8 10 12 12 11 11 11 12 12 12 12 12 12 14
17 18 19 18 18 20 22 24 20 16 12 10 7 6 3 5 5 4 3 3 2 2 3 5 6 6 5 6 8 7 9 11 12 13 13 13 12 14 14 14 14 15 15 16
18 18 17 17 17 17 19 19 16 12 10 8 7 3 4 4 4 4 3 2 2 3 4 5 6 7 7 8 9 10 9 9 10 10 13 14 15 15 16 16 16 17 18 19
20 19 19 19 17 18 17 15 12 9 9 9 7 7 6 6 7 6 5 6 5 4 4 6 7 9 10 10 10 11 11 12 13 14 14 15 16 17 17 18 19 19 21 21
20 18 18 18 19 18 16 15 12 10 8 8 9 5 6 7 11 10 14 13 11 9 8 9 9 9 10 11 11 11 12 14 14 15 16 17 16 17 18 18 19 19 20 21
19 14 14 15 16 17 17 16 14 13 11 8 8 8 8 8 9 15 14 13 13 12 10 10 11 13 14 14 14 15 15 15 15 16 17 17 17 18 18 18 18 20 22 23
14 11 14 15 15 16 17 17 15 14 14 14 12 11 13 14 15 16 20 18 17 16 15 16 15 15 15 15 15 15 15 15 16 16 17 17 17 17 18 19 21 22 22 24
10 11 13 14 16 17 18 18 19 20 17 16 16 14 13 14 15 15 12 10 9 10 15 17 18 17 16 15 15 15 15 16 15 15 16 16 17 17 18 20 21 23 24 25
13 10 9 10 13 17 19 20 20 21 22 22 20 18 18 18 19 17 14 12 11 11 10 10 10 9 9 9 10 11 12 12 13 14 14 16 17 18 20 21 23 24 26 28
11 10 8 6 8 14 17 18 20 21 23 23 24 23 20 19 20 19 17 16 16 17 15 15 14 11 11 11 11 13 13 13 15 16 17 17 18 19 20 22 24 25 27 28
11 12 12 11 9 9 13 16 17 19 21 21 21 19 19 20 23 23 20 17 18 19 17 15 15 13 13 14 14 15 14 14 15 17 17 18 19 20 21 22 24 26 27 28
9 9 12 12 12 11 12 14 16 18 19 19 19 19 19 20 20 19 18 19 21 23 22 19 18 16 16 16 16 17 17 16 16 17 18 18 20 21 22 23 25 27 28 30
7 6 8 10 12 10 11 14 15 17 18 18 19 20 21 21 20 19 19 21 21 24 22 20 17 18 17 17 17 18 19 19 18 18 18 19 20 21 22 24 25 27 28 30
4 6 6 8 11 12 12 14 15 17 18 17 19 21 22 20 20 20 21 24 24 23 21 20 22 22 21 19 19 19 19 20 20 20 20 21 21 22 23 24 26 27 29 31
4 5 7 11 12 14 15 15 16 18 18 18 19 19 20 22 22 22 22 23 24 20 20 21 21 20 20 19 20 21 21 21 22 22 21 21 22 22 23 24 26 28 29 31
7 8 9 11 14 15 15 18 19 20 20 20 21 22 23 23 23 24 25 21 20 20 20 22 21 19 18 17 17 21 24 23 24 23 23 23 25 25 25 26 27 29 29 29
9 9 11 14 16 17 19 19 19 19 20 20 20 20 19 20 20 18 18 17 18 17 18 19 17 13 15 18 24 21 21 21 20 22 23 24 26 27 27 27 27 27 28 28
9 10 12 13 16 17 17 18 18 19 19 19 18 13 8 8 10 13 11 12 14 16 16 15 12 9 12 17 19 19 21 22 25 30 27 28 26 26 25 24 26 29 29 29
11 11 13 14 15 16 18 18 19 19 19 19 19 18 16 14 13 12 12 10 11 12 13 12 11 11 8 14 23 25 19 19 19 20 21 21 22 26 27 28 27 27 28 28
11 12 13 15 14 15 16 17 18 19 19 19 21 20 20 15 16 16 16 17 17 15 12 10 9 12 16 24 20 16 16 21 23 24 24 25 24 23 23 24 26 25 26 25
Wind_Direction
276 276 273 274 272 271 262 266 263 269 266 267 267 264 256 256 254 269 269 267 266 276 299 324 317 268 253 246 250 254 255 258 267 273 270 272 274 274 272 275 280 283 287 289
273 275 272 271 275 275 275 268 267 273 270 280 268 258 253 255 257 269 282 285 291 293 309 355 25 337 268 241 243 251 256 259 262 276 278 279 275 277 279 277 280 284 284 285
272 276 274 266 273 275 275 273 271 267 275 277 262 251 249 253 261 275 286 295 300 300 302 346 0 359 265 249 258 265 257 257 258 267 281 286 280 280 281 281 282 285 288 290
288 279 263 273 277 280 282 276 275 278 283 276 261 257 252 256 262 274 288 305 310 313 293 321 355 35 11 269 290 302 271 263 268 267 275 275 284 288 284 283 286 288 291 291
300 279 280 274 274 273 276 274 285 279 279 269 251 253 264 271 277 279 283 310 335 350 346 356 354 0 12 227 355 6 359 284 283 278 274 278 287 287 293 287 286 291 297 297
299 293 276 282 280 280 275 270 290 286 273 252 236 257 267 261 255 262 283 8 42 36 38 61 32 44 62 295 298 330 328 301 264 267 275 290 290 291 310 314 295 296 306 308
285 280 285 279 283 281 265 265 285 286 282 251 262 274 245 226 240 233 249 80 75 52 36 24 20 57 40 35 336 336 344 284 272 276 297 296 300 302 307 318 327 320 308 305
285 280 272 291 282 276 280 282 285 282 281 269 279 276 182 200 196 215 238 149 166 123 358 331 334 329 346 344 339 334 309 287 285 297 303 299 309 314 320 327 330 329 327 327
286 288 292 289 289 292 291 284 286 279 275 275 281 267 236 206 216 210 184 207 214 239 260 295 297 317 326 318 292 309 295 285 294 293 301 306 315 319 322 323 321 320 319 321
287 285 286 295 300 306 302 298 292 285 268 267 273 251 232 215 186 191 193 206 225 255 273 289 302 308 313 308 302 302 308 317 325 328 313 311 315 319 316 320 321 319 317 315
281 281 282 287 297 303 313 317 320 312 287 270 262 258 230 218 232 239 243 252 260 268 281 293 302 306 309 312 312 310 312 311 311 311 309 313 317 316 319 324 318 314 314 314
279 283 285 286 289 297 306 314 318 315 306 292 265 237 222 233 256 275 263 253 259 270 279 286 296 305 305 308 309 309 309 309 311 311 308 309 310 315 322 321 322 322 322 318
281 290 295 299 299 300 298 300 305 306 307 304 287 261 253 256 262 252 254 256 258 263 277 285 293 295 297 297 298 298 299 303 306 308 308 310 310 308 308 313 321 321 319 319
302 308 296 297 298 304 302 297 301 301 300 296 292 277 268 273 265 263 258 256 259 263 272 279 288 292 294 296 297 299 301 302 303 304 306 309 312 313 313 312 310 312 320 319
92 334 313 305 299 298 300 302 290 286 293 292 291 285 278 274 275 272 269 262 269 279 280 281 283 286 288 294 296 298 301 302 306 308 308 308 311 312 314 315 314 314 314 317
117 85 21 347 325 306 296 296 296 294 288 286 288 286 281 279 283 281 272 263 257 264 276 287 299 304 307 312 310 311 310 310 310 311 313 312 312 311 312 313 313 314 315 317
104 106 98 72 8 326 313 307 300 296 293 290 288 285 280 277 278 278 276 272 270 277 278 282 290 294 294 296 299 301 302 302 302 302 303 305 308 310 312 313 312 313 314 316
59 41 34 30 35 15 337 321 315 310 303 301 298 294 288 281 276 274 273 272 270 277 277 277 284 284 290 291 295 297 297 297 296 298 300 302 304 307 310 312 313 314 315 317
87 48 30 17 1 7 0 342 329 323 317 310 305 301 296 294 290 286 280 275 274 271 273 274 276 276 282 285 289 294 295 295 297 299 299 301 302 304 307 309 312 314 315 316
70 56 26 18 356 8 2 343 335 329 322 317 313 306 299 299 296 292 289 285 282 280 270 268 267 274 277 280 279 286 289 291 294 297 300 303 304 305 307 309 312 314 315 317
77 29 22 21 3 358 352 342 334 330 323 319 313 306 303 303 302 298 293 290 289 287 281 270 267 270 272 270 271 278 282 287 292 295 298 300 303 306 308 310 313 315 316 318
43 38 32 6 3 2 358 351 341 333 328 322 317 312 308 302 300 298 296 293 294 292 288 282 276 273 273 265 266 271 274 283 290 293 297 301 304 305 307 310 312 314 317 319
65 49 33 18 9 1 356 346 339 334 328 324 318 312 307 305 302 297 294 297 294 294 290 288 283 272 265 267 259 264 269 278 283 288 293 296 298 301 303 305 309 313 317 321
52 29 19 3 360 357 350 349 348 347 343 337 329 323 317 311 309 305 300 299 299 298 294 292 289 275 265 265 262 270 271 275 283 287 290 293 295 298 300 304 311 317 320 322
55 40 27 19 9 10 11 9 7 7 4 6 8 25 51 22 354 340 331 315 308 305 301 296 289 271 274 276 269 269 272 276 277 274 286 289 296 299 305 311 315 317 320 322
61 47 41 33 29 27 24 28 29 33 27 29 28 353 15 32 40 51 36 29 2 336 315 306 294 299 289 272 267 265 280 287 292 295 296 301 302 301 302 307 312 319 320 322
59 57 48 38 35 39 43 47 46 48 44 51 32 15 28 44 48 50 49 62 84 82 29 352 335 296 297 271 277 295 298 292 291 292 294 295 299 306 311 313 315 319 321 324